Погода в Азим-Сирме

Россия / Чувашская Республика     55°36′56″N   46°44′42″E
темп.,
°C
ветер,
м/с
пор.,
м/с
влажн.,
%
обл.,
%
осадки,
мм/ч
давл.,
гПа
погр.,
м
13 июня, вс
вс1300:00+14юв249643 0.0 101081
03:00+13юв23965 0.0 101045
06:00+17ююв368991 0.0 1010194
09:00+22ю456811 0.0 1010725
12:00+23ю586623 1.1 10101495
15:00+21ю488299 3.3 1010749
18:00+20ю598749 2.2 1010548
21:00+17ююв31096100 3.1 1011255
14 июня, пн
пн1400:00+16ю3996100 0.0 1012204
03:00+15ююз3797100 0.0 1013137
06:00+17юз3694100 0.0 1014195
09:00+22юз35715 0.0 1015820
12:00+24зюз346632 0.7 10151232
15:00+22юз348378 4.1 1015405
18:00+21юз228839 3.4 1015163
21:00+17ююз1192100 3.8 101511
15 июня, вт
вт1500:00+17зюз0192100 0.0 101511
03:00+16св119223 0.0 101511
06:00+18всв1390100 0.0 1015121
09:00+23всв347183 0.1 1014627
12:00+22ю3480100 2.6 1014701
15:00+23ююв347238 3.7 1013872
18:00+20ююв259189 1.1 1012192
21:00+17юв2396100 3.1 101249
16 июня, ср
ср1600:00+17юв239495 0.2 101148
03:00+16юв3695100 0.2 1011112
06:00+19юв369191 0.2 1010167
09:00+24юв4661100 0.2 1009521
12:00+25юв3561100 0.0 1009735
15:00+27в335734 0.0 10071376
18:00+25в237310 0.1 1007186
21:00+19ссз359061 0.5 100872
17 июня, чт
чт1700:00+16с5139895 1.5 1010455
03:00+16с61195100 1.8 1011506
06:00+15с51193100 0.0 1013610
09:00+19с710702 0.0 1015972
12:00+22с68566 0.0 10171653
15:00+22ссв58540 0.0 10181946
18:00+20с49640 0.0 1019765
21:00+15с22760 0.0 102115